TimeCDT,TemperatureF,Dew PointF,Humidity,Sea Level PressureIn,VisibilityMPH,Wind Direction,Wind SpeedMPH,Gust SpeedMPH,PrecipitationIn,Events,Conditions,WindDirDegrees,DateUTC
12:52 AM,66.0,50.0,56,29.83,10.0,South,15.0,23.0,N/A,,Clear,190,2012-09-11 05:52:00
1:52 AM,64.0,50.0,60,29.83,10.0,South,15.0,-,N/A,,Clear,180,2012-09-11 06:52:00
2:52 AM,63.0,51.1,65,29.82,10.0,South,15.0,21.9,N/A,,Clear,180,2012-09-11 07:52:00
4:52 AM,60.1,51.1,72,29.83,10.0,South,12.7,-,N/A,,Clear,190,2012-09-11 09:52:00
5:52 AM,59.0,51.1,75,29.83,10.0,South,11.5,-,N/A,,Clear,180,2012-09-11 10:52:00
6:52 AM,59.0,51.1,75,29.83,10.0,South,15.0,-,N/A,,Clear,180,2012-09-11 11:52:00
7:52 AM,60.1,51.1,72,29.83,10.0,South,15.0,-,N/A,,Clear,180,2012-09-11 12:52:00
8:52 AM,69.1,50.0,51,29.82,10.0,SSW,19.6,26.5,N/A,,Clear,200,2012-09-11 13:52:00
10:52 AM,82.0,46.0,28,29.81,10.0,SSW,25.3,40.3,N/A,,Clear,210,2012-09-11 15:52:00
11:52 AM,87.1,44.1,22,29.80,10.0,SSW,26.5,39.1,N/A,,Clear,210,2012-09-11 16:52:00
12:52 PM,90.0,45.0,21,29.79,10.0,SSW,24.2,36.8,N/A,,Clear,200,2012-09-11 17:52:00
1:52 PM,91.9,46.0,21,29.78,10.0,SSW,28.8,36.8,N/A,,Clear,200,2012-09-11 18:52:00
2:52 PM,93.9,46.0,19,29.76,10.0,SSW,27.6,38.0,N/A,,Clear,200,2012-09-11 19:52:00
3:52 PM,93.0,46.9,20,29.75,10.0,South,24.2,35.7,N/A,,Clear,190,2012-09-11 20:52:00
4:52 PM,91.9,46.9,21,29.75,10.0,SSW,23.0,32.2,N/A,,Clear,200,2012-09-11 21:52:00
6:52 PM,87.1,50.0,28,29.78,10.0,South,18.4,31.1,N/A,,Clear,190,2012-09-11 23:52:00
7:52 PM,82.9,50.0,32,29.79,10.0,South,16.1,24.2,N/A,,Clear,190,2012-09-12 00:52:00
8:52 PM,78.1,51.1,39,29.81,10.0,South,11.5,-,N/A,,Clear,180,2012-09-12 01:52:00
9:52 PM,75.9,50.0,40,29.83,10.0,South,16.1,-,N/A,,Clear,190,2012-09-12 02:52:00
10:52 PM,75.9,48.9,38,29.84,10.0,South,13.8,-,N/A,,Clear,190,2012-09-12 03:52:00
11:52 PM,75.9,50.0,40,29.86,10.0,South,12.7,-,N/A,,Clear,190,2012-09-12 04:52:00